CAPE
3 5 13 10 5 7 2 0 0 1 7 18 10 1 1 5 8 12 12 0 0 0 15 0 0 0 0 0 2 0 2 8 13 7 1 101 27 34 11 0 0 0 0
3 3 4 11 2 12 12 7 6 5 4 4 6 5 4 8 11 11 7 0 0 1 0 36 17 3 1 0 0 0 19 70 11 2 10 113 97 75 0 0 0 0 0
3 7 7 5 3 2 19 12 5 5 3 0 1 1 2 1 2 1 0 0 0 0 2 17 36 59 98 75 61 56 20 16 26 39 69 122 119 88 51 0 0 1 4
5 13 6 1 1 6 8 13 16 13 10 0 0 0 0 0 0 0 0 0 0 0 14 30 29 37 79 119 144 99 72 149 102 53 30 44 90 67 129 86 78 62 37
7 6 5 5 6 12 12 6 11 17 15 14 10 3 0 0 0 0 0 3 5 2 1 1 1 4 0 18 37 57 78 54 58 56 39 70 61 58 51 31 38 16 34
2 3 1 0 0 0 0 0 0 0 0 0 6 19 20 6 0 0 0 0 0 1 4 3 1 0 0 0 0 0 0 63 27 18 6 4 0 0 0 6 13 11 3
1 1 0 0 0 0 0 0 0 0 1 1 1 0 1 0 0 0 0 0 0 0 0 0 0 0 0 1 0 0 0 0 0 0 0 0 0 0 0 0 0 0 0
0 0 0 0 0 0 0 0 1 1 3 3 1 0 2 0 1 0 0 0 0 0 0 0 0 0 0 0 0 0 0 0 0 0 0 0 0 1 0 0 0 0 0
0 0 0 1 1 1 2 2 2 4 4 2 2 1 1 1 2 1 0 0 2 1 0 0 1 1 0 0 0 0 0 0 0 0 0 1 0 0 0 0 0 1 0
1 2 2 1 1 3 5 3 3 2 3 1 1 2 2 2 4 3 0 1 2 1 2 2 0 1 0 0 0 0 0 0 0 2 0 0 1 1 1 1 0 0 0
1 2 2 2 2 4 4 4 3 3 2 1 1 3 2 6 8 4 1 2 3 2 3 3 3 3 2 1 0 0 1 1 1 0 1 1 1 2 3 3 3 1 0
0 0 1 2 3 4 5 5 4 4 4 4 4 5 7 6 6 5 3 2 2 4 5 7 7 6 5 3 2 2 1 0 1 0 2 1 3 3 1 3 2 2 3
2 1 0 1 1 2 3 6 6 3 5 5 6 6 6 6 6 3 4 3 3 10 11 6 2 2 2 5 1 1 0 0 2 0 0 1 5 7 9 8 7 5 6
3 4 2 2 2 3 5 9 8 12 12 9 5 9 7 12 5 8 7 7 3 5 3 6 5 2 3 7 11 12 11 8 5 7 9 9 8 4 6 6 6 5 2
2 2 3 4 3 4 12 13 16 18 15 10 13 11 10 14 14 4 5 7 6 2 2 3 5 5 6 8 7 12 11 11 10 10 8 8 7 6 7 7 3 1 1
2 1 3 3 2 2 3 5 7 8 7 6 6 8 14 8 6 5 2 1 0 0 2 6 9 9 9 9 9 8 8 6 8 8 9 4 2 2 1 0 1 0 0
3 2 0 0 0 0 1 1 3 5 5 5 6 9 8 7 5 3 2 1 0 0 3 7 8 10 9 8 8 6 5 5 1 2 2 2 1 0 0 1 0 0 0
1 0 2 2 2 2 2 3 3 3 3 5 5 8 8 6 3 0 0 0 0 3 4 5 7 7 5 2 1 1 1 1 1 1 2 3 2 2 0 0 1 1 0
0 1 1 1 1 1 1 2 2 2 1 1 1 0 0 1 1 1 0 2 2 3 3 3 6 6 6 5 7 5 4 4 3 3 3 2 3 1 0 1 0 0 0
2 0 0 1 1 1 1 0 0 0 0 1 1 2 1 0 0 1 2 3 2 3 4 2 2 2 4 3 4 4 3 2 2 1 3 3 4 1 1 0 1 1 0
3 1 0 1 1 1 1 1 0 0 0 0 1 1 0 0 1 1 2 2 2 3 4 3 3 4 2 2 1 1 1 3 1 2 2 1 2 1 1 1 1 0 0
1 1 0 1 0 1 0 0 0 0 0 0 1 0 0 1 1 1 0 2 3 3 4 3 2 1 1 0 0 1 0 0 0 1 1 0 1 1 1 0 1 1 0
0 0 0 0 0 0 0 0 0 0 0 1 0 1 1 2 3 3 3 3 2 2 2 2 2 0 0 1 2 2 0 0 1 1 1 1 1 2 2 2 1 1 1
0 1 0 0 1 0 1 2 0 0 0 1 2 2 1 2 3 1 1 2 2 2 1 1 1 0 0 1 3 3 1 1 1 1 0 1 1 0 1 0 1 0 1
0 0 0 0 0 1 1 0 1 1 1 2 2 2 1 1 0 1 1 1 0 1 1 0 1 0 0 0 0 0 0 0 0 0 0 0 0 0 0 0 0 1 0
0 0 0 0 0 0 0 0 0 0 0 1 0 0 0 0 0 0 0 0 0 0 0 0 0 0 0 1 0 0 0 0 0 0 1 1 0 0 0 0 0 1 1
CIN
0 0 0 0 -0 -0 -0 -3 0 -1 0 0 0 0 0 0 0 0 0 0 0 -15 -58 0 0 -30 0 0 -98 0 -99 -40 -25 -37 -16 -5 -46 -79 -56 0 -40 0 0
0 0 0 0 -1 0 0 -16 -14 0 0 0 0 0 0 0 0 0 -9 0 0 -24 -2 -13 -57 -110 -93 -59 0 0 -32 -21 -37 -29 -62 -12 -13 -37 0 0 0 0 0
0 0 -0 -3 -2 0 0 -11 -21 -12 -18 0 0 0 0 0 -1 0 0 0 0 -34 -33 -21 -15 -11 -2 -3 -7 -7 -32 -57 -31 -12 -3 -1 0 -1 -14 -7 0 -21 -99
0 0 0 -1 -2 0 0 -4 -14 -15 -17 0 0 -9 0 0 0 0 0 0 -11 -20 -11 -5 -4 -3 -6 0 0 -0 -1 0 -0 -4 -9 -4 -0 -0 0 0 0 -1 -16
0 0 0 0 0 0 -157 -1 -5 -9 -6 -3 -9 -25 0 -9 -11 -31 -31 -22 -15 -12 -16 -1 -23 -35 -3 -1 -6 -6 -2 -0 -0 0 -0 0 -0 0 -1 -7 -5 -8 -12
0 0 0 0 0 0 0 0 0 0 -13 0 -4 0 -3 -1 0 0 0 -2 0 0 -10 -13 0 0 0 0 0 0 -0 -17 -3 -2 -3 -2 -2 0 -1 -3 -1 -1 -1
0 0 0 0 0 0 0 0 0 0 0 0 0 0 -0 0 0 0 0 0 0 0 0 0 0 0 0 0 0 0 0 0 0 -1 -1 0 -0 0 0 0 0 -2 -1
0 -0 0 0 0 0 0 0 0 0 0 0 0 0 0 0 0 0 0 0 -0 -0 0 0 0 0 0 0 0 0 0 0 0 0 0 -0 0 0 0 -0 0 0 0
0 0 0 0 0 0 0 0 0 0 0 0 0 0 0 0 0 0 0 0 0 0 -0 0 0 0 0 0 0 0 0 0 0 0 0 0 0 0 0 0 0 0 0
0 0 0 0 0 0 0 0 0 0 0 0 0 0 0 0 0 0 0 0 0 0 0 0 0 0 0 0 0 0 0 0 0 0 0 0 0 0 0 0 0 0 0
0 0 0 0 0 0 0 0 0 0 0 0 0 0 0 0 0 0 0 0 0 0 0 0 0 0 0 0 0 0 0 0 0 0 0 0 0 0 0 0 0 0 0
0 0 0 0 0 0 0 0 0 0 0 0 0 0 0 0 0 0 0 0 0 0 0 0 0 0 0 0 0 0 0 -0 0 -0 0 0 0 0 0 0 0 0 0
0 0 0 0 0 0 0 0 0 0 0 0 0 0 0 0 0 0 0 0 0 0 0 0 0 0 0 0 0 0 0 0 0 0 -0 0 0 0 0 0 0 0 0
0 0 0 0 0 0 0 0 0 0 0 0 0 0 0 0 0 0 0 0 0 0 0 0 0 0 0 0 0 0 0 0 0 0 0 0 0 0 0 0 0 0 0
0 0 0 0 0 0 0 0 0 0 0 0 0 0 0 0 0 0 0 0 0 0 0 0 0 0 0 0 0 0 0 0 0 0 0 0 0 0 0 0 0 0 0
0 0 0 0 0 0 0 0 0 0 0 0 0 0 0 0 0 0 0 0 0 0 0 0 0 0 0 0 0 0 0 0 0 0 0 0 0 0 0 0 0 0 0
0 0 0 0 0 0 0 0 0 0 0 0 0 0 0 0 0 0 0 0 0 0 0 0 0 0 0 0 0 0 0 0 0 0 0 0 0 0 0 0 0 0 0
0 0 0 0 0 0 0 0 0 0 0 0 0 0 0 0 0 0 0 0 0 0 0 0 0 0 0 0 0 0 0 0 0 0 0 0 0 0 0 0 0 0 0
0 0 0 0 0 0 0 0 0 0 0 0 0 0 0 0 0 0 0 0 0 0 0 0 0 0 0 0 0 0 0 0 0 0 0 0 0 0 0 0 0 0 0
0 0 0 0 0 0 0 0 0 0 0 0 0 0 0 0 0 0 0 0 0 0 0 0 0 0 0 0 0 0 0 0 0 0 0 0 0 0 0 0 0 0 0
0 0 0 0 0 0 0 0 0 0 0 0 0 0 0 0 0 0 0 0 0 0 0 0 0 0 0 0 0 0 0 0 0 0 0 0 0 0 0 0 0 0 0
0 0 0 0 0 0 0 0 0 0 0 0 0 0 0 0 0 0 0 0 0 0 0 0 0 0 0 0 0 0 0 0 0 0 0 0 0 0 0 0 0 0 0
0 0 0 0 0 0 0 0 0 0 0 0 0 0 0 0 0 0 0 0 0 0 0 0 0 0 0 0 0 0 0 0 0 0 0 0 0 0 0 0 0 0 0
0 0 0 0 0 0 0 0 0 0 0 0 0 0 0 0 0 0 0 0 0 0 0 0 0 0 0 0 0 0 0 0 0 0 0 0 0 0 0 0 0 0 0
0 0 0 0 0 0 0 0 0 0 0 0 0 0 0 0 0 0 0 0 0 0 0 0 0 0 0 0 0 0 0 0 0 0 0 0 0 0 0 0 0 0 0
0 0 0 0 0 0 0 0 0 0 0 0 0 0 0 0 0 0 0 0 0 0 0 0 0 0 0 0 0 0 0 0 0 0 0 0 0 0 0 0 0 0 0
Wind_Speed
15 13 13 12 10 9 10 9 9 10 12 12 14 12 12 15 16 14 15 13 11 11 9 9 11 9 7 6 6 6 7 8 10 10 9 9 10 13 12 11 13 14 12
13 12 12 12 10 9 11 11 12 12 12 13 12 13 14 15 16 17 15 12 14 15 14 13 14 9 11 11 10 13 14 15 12 17 15 14 16 15 14 14 13 12 13
11 9 9 9 9 10 11 11 12 11 12 12 12 13 13 14 13 13 13 13 13 14 14 14 17 17 16 14 15 14 11 10 12 12 15 14 14 12 14 13 14 15 13
8 7 7 7 7 10 9 9 10 11 11 11 11 12 14 14 14 14 14 13 13 13 15 16 17 18 18 17 15 17 15 14 14 13 14 15 13 15 12 13 14 14 14
6 5 3 7 8 8 8 8 7 8 9 10 11 11 11 11 11 15 15 15 15 15 14 15 16 18 19 19 13 17 16 14 13 13 13 14 14 13 15 14 14 14 15
13 12 11 10 11 10 8 5 1 3 5 7 9 11 11 9 11 13 14 13 15 17 16 17 18 19 22 20 22 24 20 17 18 15 15 17 20 16 15 14 14 14 15
18 13 12 12 12 10 9 9 9 8 7 9 7 5 8 9 20 14 10 13 13 13 14 14 14 12 15 18 20 22 23 23 21 21 20 18 19 17 16 17 16 15 16
17 14 14 13 11 10 10 10 10 8 8 9 10 11 9 12 19 17 16 7 12 14 14 15 16 16 15 16 17 17 17 19 19 16 22 22 13 9 7 10 14 16 12
15 14 13 11 12 11 11 11 9 9 10 11 10 12 11 12 21 19 15 6 6 10 10 9 12 9 13 11 9 16 15 13 12 11 19 16 15 17 12 4 7 3 10
12 13 9 11 13 12 12 11 9 9 10 9 11 12 16 12 22 22 16 5 6 6 9 12 21 12 13 11 3 6 9 5 7 8 8 12 13 13 19 9 5 3 2
10 10 11 14 14 12 11 10 10 10 10 11 11 11 12 14 15 24 24 11 8 8 8 9 11 21 21 21 17 8 6 9 11 10 9 9 10 12 11 12 13 8 5
10 11 13 13 12 10 12 11 12 10 11 11 11 10 10 11 19 21 24 22 17 11 10 8 10 23 27 26 18 23 20 14 10 10 10 10 9 10 9 10 14 13 11
10 11 12 13 13 12 13 12 10 11 9 10 9 9 9 9 9 17 20 20 20 13 9 15 20 20 22 20 27 24 17 10 10 11 9 9 7 8 7 10 11 13 14
10 10 11 13 13 13 10 10 10 10 10 9 10 9 9 9 10 9 8 8 13 11 12 12 13 15 18 15 14 15 12 11 10 10 10 8 7 8 8 7 7 5 10
9 8 9 9 10 13 14 12 11 14 13 9 9 9 9 9 10 13 12 8 8 9 10 10 11 11 11 11 12 12 11 10 10 8 8 8 7 7 8 8 7 8 9
7 7 7 7 7 7 9 10 24 22 25 24 22 12 9 17 19 18 19 19 18 14 11 11 11 10 10 10 10 9 9 10 9 8 7 7 7 7 7 7 8 8 8
9 8 7 8 7 7 7 7 7 10 18 23 22 21 21 18 17 17 19 23 20 14 12 10 10 10 9 9 9 9 9 8 7 7 7 7 6 6 7 7 7 7 7
10 12 8 7 8 7 7 7 6 7 7 8 15 17 19 19 20 18 15 13 11 13 11 10 9 9 8 8 8 8 8 7 7 7 7 7 7 7 7 7 7 6 6
8 7 7 7 7 7 7 7 7 7 7 6 6 8 12 18 21 24 20 10 9 9 9 9 8 8 8 8 7 7 7 7 7 6 7 7 7 6 7 6 7 9 7
8 10 8 6 6 7 6 6 6 7 8 7 8 9 8 8 10 11 10 9 8 8 7 8 7 7 6 6 5 5 6 6 6 6 6 6 6 6 6 6 6 6 6
5 6 8 7 7 6 6 7 7 6 6 7 8 8 10 8 8 8 8 8 7 7 6 6 6 6 6 6 6 6 6 5 6 5 5 5 5 5 5 5 5 5 6
5 5 6 6 6 6 6 5 6 6 6 6 6 7 9 7 7 7 7 7 6 6 5 6 6 6 6 6 5 5 5 5 5 5 5 4 4 4 4 4 5 5 5
5 6 6 6 6 6 6 6 6 6 6 6 6 5 6 6 6 6 6 6 6 5 5 6 5 5 5 5 6 6 5 5 5 5 4 4 4 4 3 4 4 4 4
6 6 6 5 5 5 5 6 6 7 6 5 5 5 5 5 5 5 4 4 4 4 4 4 5 6 5 5 4 5 5 5 4 4 5 4 3 2 3 3 3 4 3
5 6 6 5 5 5 5 5 5 5 5 4 4 4 4 3 3 3 3 3 3 3 4 3 4 5 5 5 6 6 6 7 6 5 3 3 3 3 3 2 3 2 4
5 5 5 4 5 4 4 4 4 3 3 3 3 3 3 3 3 2 2 3 2 3 4 3 4 5 4 3 4 6 6 6 5 5 4 3 2 2 2 2 3 3 4
Wind_Direction
165 174 182 171 170 184 176 171 169 176 192 191 185 176 178 184 190 196 210 214 205 212 211 210 212 204 208 198 187 223 227 232 248 262 263 252 233 229 236 237 242 245 243
161 171 177 167 159 181 187 184 185 191 193 195 193 194 194 199 201 201 204 205 210 216 220 217 222 217 221 219 214 217 228 234 235 249 245 245 232 229 222 221 225 229 239
151 167 170 160 168 193 188 183 180 187 192 198 197 198 200 205 204 206 207 209 213 219 221 225 230 230 231 228 228 233 230 235 239 243 253 245 242 235 237 237 240 244 242
141 156 153 167 184 203 203 189 179 185 188 191 195 203 208 211 214 213 213 217 219 224 226 228 228 229 232 232 231 234 235 237 234 236 246 253 249 247 239 249 248 238 246
111 110 145 192 198 207 212 217 209 194 202 206 206 208 211 216 217 219 221 225 226 227 228 230 233 235 234 233 232 236 234 234 238 239 241 249 252 248 241 244 246 254 254
46 54 45 56 56 45 39 13 203 216 220 206 226 231 230 230 213 209 222 225 228 232 232 230 230 224 231 223 221 234 237 233 236 241 244 246 248 251 250 249 252 252 257
42 14 45 48 46 37 33 41 42 32 27 32 17 316 258 45 16 2 260 229 226 228 233 238 241 240 236 242 229 234 238 237 238 245 245 241 249 244 246 247 244 246 252
50 16 24 42 42 38 38 39 33 30 37 45 43 31 66 36 12 2 342 264 251 247 240 241 245 248 242 234 238 240 232 238 239 241 252 264 281 310 287 264 255 254 252
40 25 12 34 42 39 39 33 31 40 48 56 49 45 43 33 11 3 347 321 276 266 274 22 20 1 2 1 264 251 246 244 49 85 73 63 59 36 18 338 280 284 264
33 32 5 36 44 40 35 29 30 54 61 65 59 49 43 37 20 15 2 353 11 54 47 42 24 21 14 11 312 286 284 326 92 73 64 48 47 43 38 37 345 246 188
37 32 29 35 42 42 43 38 38 52 64 63 63 52 43 34 32 32 29 38 54 58 50 44 38 37 42 43 49 46 71 104 83 77 70 65 54 43 35 39 40 28 65
52 43 41 45 43 38 49 51 46 55 57 55 57 53 42 37 34 39 45 52 58 65 58 50 53 51 51 50 52 59 67 73 64 70 67 53 46 60 44 58 52 59 57
65 58 53 52 51 47 50 52 54 55 58 58 55 51 44 32 38 41 45 54 58 68 66 67 61 56 56 53 55 53 55 54 72 73 68 65 61 58 61 68 61 61 56
65 67 67 64 60 55 52 48 48 46 50 53 56 53 49 42 38 39 45 52 58 65 68 60 63 63 61 58 57 56 58 62 69 73 73 73 68 59 58 46 50 59 57
68 72 75 73 75 69 58 50 53 50 49 53 49 46 44 45 42 49 50 54 59 59 74 65 59 56 57 56 54 50 52 55 58 62 68 69 65 64 52 47 44 56 64
69 65 60 71 70 71 79 73 55 55 53 54 52 50 59 63 58 59 62 61 58 58 66 63 59 55 54 53 54 56 51 52 50 55 54 55 58 61 68 64 60 56 64
53 47 56 56 60 65 67 67 77 67 58 51 48 54 53 56 62 64 68 66 59 66 65 60 57 52 50 49 47 46 48 41 42 50 55 53 54 60 61 62 66 69 67
62 53 57 54 55 57 58 60 58 52 49 43 43 39 52 55 59 58 61 66 53 51 56 57 55 51 48 47 44 42 43 44 44 48 52 56 57 56 58 58 56 55 64
61 62 65 66 62 66 67 65 61 61 58 46 37 45 33 42 49 47 47 56 61 59 55 53 46 46 47 48 48 51 53 49 43 49 51 51 49 61 60 59 67 53 52
65 62 62 66 62 61 63 69 68 61 56 46 37 26 19 39 45 44 45 46 50 48 49 56 56 54 51 57 52 46 49 45 48 47 46 46 52 54 60 57 50 52 45
65 64 59 66 59 55 57 58 60 63 64 60 52 34 33 57 55 49 49 48 48 51 51 52 49 49 53 51 47 53 49 38 38 39 45 51 43 51 45 47 49 48 33
60 63 64 68 70 70 72 72 73 76 75 75 72 59 49 63 65 62 57 49 48 43 38 57 59 49 38 35 29 35 40 35 27 14 29 30 39 48 47 49 44 39 32
62 71 73 71 78 87 80 77 78 79 80 74 70 65 61 64 65 60 56 46 47 44 39 60 57 52 45 36 36 30 33 30 18 355 2 18 33 44 36 45 38 36 30
56 66 76 74 74 82 84 86 88 78 79 78 75 71 67 64 63 57 43 39 42 53 53 59 54 42 39 40 38 44 43 22 11 15 354 1 17 30 30 34 37 32 20
72 80 80 79 78 80 83 74 73 74 73 69 69 68 66 60 56 39 28 28 39 49 53 35 24 32 45 48 46 35 27 24 14 347 344 352 14 358 8 6 4 10 17
69 76 80 83 81 74 72 73 70 69 77 77 77 68 43 35 27 13 24 43 43 32 7 16 7 10 4 44 36 31 12 8 4 3 337 337 325 326 318 336 350 339 2